This is the latest recevied weather packets stored in our database for station/object AA8FM-13. If no packets are shown the sender has not sent any weather packets the latest 1 day(s).
| Time | Temp. | Humidity | Pressure | Rain* | Wind** | Luminosity | Snow |
|---|---|---|---|---|---|---|---|
| 1778057514 | 13.89° C | 97% | 1005 hPa | 1.27 mm | - | 0 W/m² | - |
| 1778057211 | 13.89° C | 97% | 1004.7 hPa | 1.78 mm | - | 0 W/m² | - |
| 1778055999 | 14.44° C | 92% | 1005.1 hPa | 1.27 mm | - | 0 W/m² | - |
| 1778055694 | 14.44° C | 91% | 1005 hPa | 1.78 mm | - | 0 W/m² | - |
| 1778055393 | 13.89° C | 94% | 1005 hPa | 1.78 mm | - | 0 W/m² | - |
| 1778055090 | 13.89° C | 95% | 1005 hPa | 0 mm | - | 0 W/m² | - |
| 1778054484 | 14.44° C | 95% | 1004.5 hPa | 0 mm | - | 0 W/m² | - |
| 1778054182 | 14.44° C | 93% | 1004.4 hPa | 0 mm | - | 0 W/m² | - |
| 1778053878 | 14.44° C | 92% | 1004.7 hPa | 0 mm | - | 0 W/m² | - |
| 1778052971 | 15° C | 89% | 1004.5 hPa | 0 mm | - | 0 W/m² | - |
| 1778052668 | 15° C | 87% | 1004.4 hPa | 0 mm | - | 0 W/m² | - |
| 1778052063 | 15° C | 84% | 1004.2 hPa | 0 mm | - | 0 W/m² | - |
| 1778051760 | 15° C | 85% | 1004.5 hPa | 0 mm | - | 0 W/m² | - |
| 1778051154 | 15.56° C | 86% | 1004.4 hPa | 0 mm | - | 0 W/m² | - |
| 1778049942 | 15.56° C | 84% | 1004.5 hPa | 0 mm | - | 0 W/m² | - |
| 1778049033 | 15.56° C | 80% | 1004.6 hPa | 0 mm | - | 0 W/m² | - |
| 1778048428 | 15.56° C | 84% | 1004.9 hPa | 0 mm | - | 0 W/m² | - |
| 1778047217 | 15.56° C | 84% | 1005.1 hPa | 0 mm | - | 0 W/m² | - |
| 1778046914 | 16.11° C | 81% | 1005.3 hPa | 0 mm | - | 0 W/m² | - |
| 1778046610 | 15.56° C | 77% | 1005.4 hPa | 0 mm | - | 0 W/m² | - |
| 1778046308 | 15.56° C | 79% | 1005.4 hPa | 0 mm | - | 0 W/m² | - |
| 1778046003 | 15.56° C | 81% | 1005.2 hPa | 0 mm | - | 0 W/m² | - |
| 1778045098 | 16.11° C | 78% | 1005.6 hPa | 0 mm | - | 0 W/m² | - |
| 1778044795 | 16.11° C | 78% | 1005.8 hPa | 0 mm | - | 0 W/m² | - |
| 1778044188 | 16.11° C | 82% | 1005.8 hPa | 0 mm | - | 0 W/m² | - |
* Rain latest hour (hover to see other rain measurements)
** Current wind speed in m/s (hover to see current wind gust speed)